Powrót do katalogu

STARLINK-3881

AktywnyŁącznośćVLEO
NORAD 52472·PAYLOAD·🇺🇸 United States

Wystrzelony May 6, 2022 z Cape Canaveral Space Force Station

Loading…

Następne Przeloty (najbliższe 24 godziny)

TLE

ŚwieżeSource: CelesTrak SupGP

Epoka: Sep 15, 2026, 02:13 UTC

1 52472C 22049X   26258.09284722  .00008901  00000+0  27006-3 0  2587
2 52472  53.1567 279.1243 0001100  93.9798 299.8051 15.33549254    10

Śledź STARLINK-3881 w czasie rzeczywistym z AllMySat

Download on the App Store